Location: Overspoor
(51.4747°N, 5.6641°E)
Time: 01:15:05
(UTC+02:00)

N. Korean satellite - Pass Details

Date: 24 January 2022
Orbit: 438 x 478 km, 97.3° (Epoch: 21 May)

Event Time Altitude Azimuth Distance (km) Brightness Sun altitude
Rises 06:12:47 0° 11° (N) 2,629 10.4 -20.5°
Reaches altitude 10° 06:14:53 10° 9° (N) 1,743 9.4 -20.2°
Maximum altitude 06:18:38 71° 286° (WNW) 547 6.5 -19.6°
Drops below altitude 10° 06:22:22 10° 202° (SSW) 1,733 9.2 -19.1°
Sets 06:24:27 0° 200° (SSW) 2,611 10.1 -18.7°
